www.pogodaiklimat.ru

АРХИВ ПОГОДЫ в Хило

Время (UTC), дата Ветер
(напр.,м/с)
 
Видим.   Явления Облачность Т
(С)
Тd
(С)
f
(%)
Тe
(С)
Тes
(С)
Комфортность

P
(гПа)

Po
(гПа)
Тmin
(С)
Tmax
(С)
R
(мм)
SD
(см)
12:53 17.05 ЮЗ  16 км    5/5 810 м  +20.6  +12.8  61  +23  +23  комфорт  1017.9  1016.8         
13:53 17.05 ЮЗ  16 км    2/2 1200 м  +20.0  +12.2  61  +22  +22  комфорт  1018.0  1016.8         
14:53 17.05 ЮЗ  16 км    ясно  +19.4  +11.7  61  +21  +21  комфорт  1018.2  1016.8         
15:53 17.05 ЮЗ  16 км    ясно  +21.7  +13.3  59  +24  +24  комфорт  1019.0  1017.9         
16:53 17.05 СЗ  16 км    8/8 1230 м  +26.1  +16.7  56  +30  +30  душно  1019.4  1018.2  +19.4  +26.1     
17:53 17.05 С  16 км    5/5 1200 м  +27.8  +18.3  56  +33  +35  очень
душно 
1019.4  1018.2         
18:53 17.05 В  16 км    2/2 1020 м  +28.9  +18.3  53  +34  +39  очень
душно 
1019.4  1018.2         
19:53 17.05 нст  16 км    2/2 1110 м  +28.9  +17.8  51  +33  +44  очень
душно 
1019.3  1018.2         
20:53 17.05 В  16 км    5/5 1110 м  +28.9  +18.3  53  +34  +37  очень
душно 
1019.2  1017.9         
21:53 17.05 СВ  16 км    ясно  +28.9  +18.9  55  +34  +51  опасность
солнечного
удара 
1018.9  1017.5         
22:53 17.05 С  16 км    ясно  +28.9  +19.4  57  +35  +42  очень
душно 
1018.4  1017.2  +26.1  +29.4     
23:53 17.05 С  16 км    2/2 810 м  +28.9  +19.4  57  +35  +42  очень
душно 
1018.1  1016.8         
00:53 18.05 СВ  16 км    ясно  +28.3  +19.4  59  +34  +43  очень
душно 
1017.8  1016.5         
01:53 18.05 С  16 км    2/2 1950 м  +26.7  +19.4  64  +32  +36  очень
душно 
1017.9  1016.5         
02:53 18.05 СВ  16 км    8/8 1800 м  +28.9  +18.9  55  +34  +35  очень
душно 
1018.2  1016.8         
03:53 18.05 СВ  16 км    8/8 1470 м  +27.2  +19.4  62  +33  +33  очень
душно 
1018.7  1017.5         
04:53 18.05   16 км    10/10 1800 м  +27.2  +19.4  62  +33  +33  очень
душно 
1019.1  1017.9  +26.7  +30.0     
05:53 18.05 СЗ  16 км    10/10 1650 м  +27.2  +20.0  65  +33  +33  очень
душно 
1019.5  1018.2         
06:53 18.05 СЗ  16 км    10/10 1500 м  +27.2  +20.0  65  +33  +33  очень
душно 
1020.0  1018.9         
07:53 18.05   16 км    8/8 1110 м  +25.0  +20.6  77  +31  +31  очень
душно 
1020.1  1018.9         
08:53 18.05   16 км    10/10 1350 м  +25.6  +21.1  76  +32  +32  очень
душно 
1019.6  1018.5         
09:53 18.05 ЮЗ  16 км    2/2 1650 м  +24.4  +20.0  76  +30  +30  очень
душно 
1018.8  1017.5         
10:53 18.05   16 км    ясно  +23.3  +19.4  79  +30  +30  очень
душно 
1018.2  1016.8  +22.8  +27.2     
11:53 18.05 З  16 км    ясно  +22.8  +18.9  79  +29  +29  очень
душно 
1017.7  1016.5         
12:53 18.05   16 км    2/2 1800 м  +22.2  +18.3  79  +27  +27  душно  1017.5  1016.2         
13:53 18.05 ЮЗ  16 км    5/5 1440 м  +21.7  +18.3  81  +26  +26  душно  1017.6  1016.5         
14:53 18.05 ЮЗ  16 км    ясно  +21.7  +17.2  76  +26  +26  душно  1017.8  1016.5         
15:53 18.05   16 км    ясно  +23.9  +17.8  69  +28  +28  душно  1018.5  1017.2         
16:53 18.05 С  16 км    ясно  +26.7  +18.9  62  +32  +33  очень
душно 
1018.9  1017.9  +21.1  +27.2     
17:53 18.05 СВ  16 км    ясно  +27.8  +19.4  60  +33  +37  очень
душно 
1019.1  1017.9         
18:53 18.05 С  16 км    2/2 630 м  +28.3  +20.6  63  +35  +41  очень
душно 
1019.1  1017.9         
19:53 18.05 СВ  16 км    ясно  +29.4  +20.0  57  +36  +46  очень
душно 
1018.9  1017.9         
20:53 18.05 СВ  16 км    2/2 690 м  +30.0  +20.6  57  +37  +46  очень
душно 
1018.7  1017.5         
21:53 18.05 С  16 км    ясно  +29.4  +20.0  57  +36  +44  очень
душно 
1018.4  1017.2         
22:53 18.05 СВ  4
{8} 
16 км    2/2 1650 м  +30.0  +20.0  55  +36  +46  очень
душно 
1017.8  1016.5  +26.7  +30.0     
23:53 18.05 С  16 км    2/2 1800 м  +28.9  +20.0  59  +35  +43  очень
душно 
1017.2  1015.8         
00:53 19.05 СВ  16 км    2/2 1500 м  +28.9  +20.0  59  +35  +42  очень
душно 
1017.1  1015.8         
01:53 19.05 СВ  16 км    ясно  +28.9  +19.4  57  +35  +39  очень
душно 
1017.2  1015.8         
02:53 19.05 С  16 км    ясно  +27.8  +19.4  60  +33  +36  очень
душно 
1017.7  1016.5         
03:45 19.05 СВ  16 км    8/8 720 м  +26.7  +19.4  64  +32  +32  очень
душно 
  1016.8         
03:53 19.05 СВ  16 км    5/5 720 м  +26.7  +19.4  64  +32  +33  очень
душно 
1018.3  1016.8         
04:53 19.05 СЗ  16 км    2/2 1140 м  +25.6  +20.0  71  +31  +31  очень
душно 
1018.8  1017.5  +25.6  +30.6     
05:53 19.05 ЮЗ  16 км    2/2 870 м  +24.4  +19.4  74  +30  +30  очень
душно 
1019.5  1018.2         
06:53 19.05 ЮЗ  16 км    2/2 1800 м  +23.3  +17.2  69  +29  +29  душно  1019.7  1018.5         
07:53 19.05 ЮЗ  16 км    10/10 1380 м  +22.8  +13.9  57  +26  +26  жарко  1019.9  1018.5         
08:53 19.05 ЮЗ  16 км    8/8 1230 м  +22.8  +13.3  55  +26  +26  жарко  1019.5  1018.2         
09:53 19.05 ЮЗ  16 км    10/10 1650 м  +23.9  +12.8  50  +26  +26  жарко  1018.6  1017.2         
10:53 19.05 Ю  16 км    10/10 1650 м  +23.3  +16.1  64  +28  +28  душно  1018.0  1016.8  +22.8  +25.6     

 

Местоположение метеостанции Hilo International Airport: широта 19.7222 долгота -155.0558 высота над уровнем моря 11 м.

В архиве по умолчанию представлена погода в Хило за последние 1-2 суток. Обновление информации о фактической погоде в базе происходит ежечасно! Архивные данные за месяц целиком и за предыдущие месяцы Вы можете получить, выбрав интересующий диапазон дат из раскрывающегося списка и нажав кнопку "Ввод!".

Внимание! Архив погоды МЕТАР в базе сайта в настоящее время начинается c 1 января 2011 г. Нет смысла пытаться выбрать более раннюю дату.

Внимание! Время в таблицах - всемирное. Для получения местного времени необходимо прибавить поправку, которая в Хило равна -10 ч.

Ветер - указаны скорость ветра в м/с и направление, откуда дует ветер: С - северный, СВ - северо-восточный, В - восточный, ЮВ - юго-восточный, Ю - южный, ЮЗ - юго-западный, З - западный, СЗ - северо-западный.
Видимость - горизонтальная дальность видимости в метрах или километрах. При видимости от 1 до 10 км при отсутствии осадков обычно наблюдается дымка, при ухудшении видимости до 1 км и менее - туман. В сухую погоду видимость может ухудшаться дымом, пылью или мглою.
Атмосферные явления - указаны явления, наблюдавшиеся в указанный момент времени.
Облачность - указаны через наклонную черту верхняя и нижняя облачность в баллах и высота нижней границы облаков в метрах. Внимание: облачность, как и прочие метеорологические величины в США измеряются автоматическими метеостанциями. Указанные значения в баллах носят условный характер и показывают процент времени, в течение которого, в среднем, лазерный луч высотомера отражался от облаков обратно.
T - Температура воздуха - температура, измеренная на высоте 2 м над землей.
Td - Температура точки росы - температура, при понижении до которой содержащийся в воздухе водяной пар достигнет насыщения.
f - Относительная влажность воздуха - влажноcть воздуха, измеренная на высоте 2 м над землей.
Te - Эффективная температура - температура, которую ощущает одетый по сезону человек в тени. Характеристика душности погоды. При расчете учитывается влияние влажности воздуха и скорости ветра на теплоощущения человека.
Tes - Эффективная температура на солнце - температура, которую ощущает человек, с поправкой на солнечный нагрев. Характеристика знойности погоды. Зависит от высоты солнца над горизонтом, облачности и скорости ветра. Ночью, в пасмурную погоду, а также при ветре 12 м/с и более поправка равна нулю.
P - Атмосферное давление - приведенное к уровню моря атмосферное давление.
Po - Атмосферное давление - измеренное на уровне метеостанции атмосферное давление.
Tmin - Минимальная температура - минимум температуры воздуха на высоте 2 м над землей.
Tmax - Максимальная температура - максимум температуры воздуха на высоте 2 м над землей.
R - Количество осадков - Количество выпавших осадков за 3 или 6 часов, мм.
SD - Снежный покров - Высота снежного покрова, см.